Lapse_Rate
5.8 6.0 5.6 5.4 5.2 5.0 4.8 4.7 4.6 4.6 4.5 4.5 4.4 4.7 4.8 4.8 5.2 5.8 6.3 6.9 7.1 7.4 7.7 7.8 7.6 7.2 6.9 6.7 6.6 6.5 6.4 6.4 6.2 6.3 6.5 6.8 6.7 6.7 6.6 6.9 7.1 7.4 7.6
5.9 5.7 5.3 4.9 4.8 4.6 4.5 4.6 4.6 4.6 4.6 4.7 4.9 5.1 5.2 5.3 5.9 6.6 6.8 6.9 7.5 7.6 7.6 7.3 7.1 7.0 6.8 6.6 6.4 6.5 6.6 6.6 6.5 6.7 7.0 7.1 6.7 6.6 6.4 6.6 7.1 7.1 7.3
5.6 5.2 4.9 4.9 4.6 4.5 4.6 4.6 4.6 4.6 4.7 4.8 5.0 5.2 5.3 5.8 6.5 6.9 6.8 7.1 7.3 7.4 7.3 7.1 7.0 6.7 6.6 6.5 6.6 6.6 6.7 6.7 6.5 6.5 7.0 6.9 7.1 6.9 6.6 6.5 6.5 7.0 7.1
5.4 5.1 5.0 4.7 4.7 4.8 4.7 4.6 4.5 4.6 4.8 5.0 5.4 5.6 5.9 6.5 6.8 7.0 7.0 7.1 7.3 7.2 7.1 6.8 6.7 6.5 6.5 6.6 6.7 6.8 6.8 6.7 6.6 6.4 6.4 6.5 6.6 6.8 6.9 6.7 6.7 6.7 7.2
5.4 5.0 4.9 4.8 4.7 4.6 4.5 4.5 4.7 4.9 5.1 5.5 5.7 6.2 6.5 6.9 7.0 7.0 6.9 7.1 7.3 7.2 7.0 6.8 6.7 6.7 6.7 6.7 6.7 6.7 6.5 6.5 6.5 6.5 6.6 6.4 6.3 6.5 6.8 6.8 6.6 6.8 7.1
5.2 5.0 4.7 4.6 4.6 4.5 4.4 4.6 4.7 4.9 5.4 5.6 6.1 6.4 6.7 6.8 6.9 6.9 6.8 7.1 7.2 7.1 7.0 7.0 6.9 6.8 6.7 6.7 6.7 6.5 6.4 6.3 6.4 6.5 6.6 6.5 6.5 6.7 6.7 6.8 6.4 6.5 6.9
4.9 4.6 4.5 4.5 4.5 4.4 4.4 4.6 4.9 5.4 5.7 6.1 6.3 6.6 6.8 6.9 6.8 6.7 6.8 7.0 7.1 7.1 6.9 6.8 6.9 6.8 6.7 6.7 6.6 6.5 6.5 6.2 6.2 6.3 6.4 6.5 6.7 6.8 7.0 6.9 6.7 6.3 6.6
4.6 4.7 4.6 4.4 4.4 4.5 4.7 5.1 5.4 5.7 6.1 6.3 6.5 6.7 6.9 6.8 6.7 6.8 6.9 7.1 7.1 7.0 7.0 6.8 6.8 6.7 6.6 6.5 6.5 6.5 6.4 6.3 6.3 6.4 6.6 6.6 6.8 7.1 7.0 6.9 6.6 6.3 6.5
4.9 4.7 4.5 4.5 4.7 4.8 5.1 5.5 5.7 6.1 6.3 6.4 6.6 6.7 6.8 6.7 6.7 6.9 7.0 7.0 7.0 6.9 6.9 6.8 6.7 6.6 6.6 6.4 6.4 6.4 6.3 6.3 6.3 6.2 6.4 6.7 6.9 6.9 6.7 6.7 6.6 6.3 6.5
4.9 4.9 4.8 4.8 4.8 5.2 5.6 5.7 6.1 6.3 6.5 6.6 6.8 6.9 7.0 6.9 6.8 6.9 6.8 6.9 6.9 6.7 6.7 6.8 6.6 6.5 6.3 6.3 6.3 6.1 6.2 6.1 5.9 6.0 6.1 6.6 7.0 7.0 6.9 6.7 6.5 6.4 6.5
5.1 5.0 4.9 4.8 5.1 5.7 5.7 6.0 6.3 6.4 6.5 6.8 6.9 7.1 7.0 6.9 6.8 6.8 6.7 6.8 6.7 6.6 6.5 6.7 6.6 6.4 6.2 6.2 6.3 6.1 6.0 6.0 5.9 5.9 6.1 6.4 6.7 6.9 6.9 6.9 6.7 6.5 6.6
5.1 5.0 4.8 5.2 5.6 5.9 6.0 6.2 6.4 6.5 6.7 6.9 6.9 6.9 6.9 6.8 6.8 6.8 6.7 6.6 6.6 6.4 6.3 6.5 6.5 6.3 6.1 6.0 6.3 6.1 5.9 5.8 5.7 5.7 5.9 6.1 6.3 6.4 6.6 6.7 6.7 6.7 6.4
5.1 4.8 5.0 5.6 5.8 6.1 6.2 6.3 6.5 6.7 6.9 7.0 7.0 6.9 6.8 6.7 6.8 6.8 6.7 6.6 6.4 6.2 6.2 6.4 6.4 6.2 6.0 6.0 6.1 6.1 5.9 5.8 5.6 5.6 5.5 5.6 5.7 5.9 6.0 6.1 6.2 6.0 5.8
4.9 5.0 5.5 5.9 6.1 6.2 6.4 6.4 6.6 6.8 7.0 7.1 7.0 6.9 6.7 6.7 6.8 6.8 6.7 6.5 6.3 6.1 6.1 6.3 6.3 6.2 6.0 5.9 5.8 6.0 5.9 5.8 5.6 5.4 5.4 5.4 5.5 5.4 5.4 5.5 5.5 5.4 5.3
5.1 5.5 5.9 6.1 6.3 6.5 6.7 6.7 6.9 6.9 7.1 7.1 7.0 6.9 6.8 6.8 6.8 6.8 6.7 6.4 6.2 6.0 6.0 6.1 6.2 6.1 5.9 5.7 5.7 5.8 5.9 5.8 5.6 5.5 5.3 5.4 5.4 5.4 5.3 5.2 5.2 5.1 5.0
5.6 5.9 6.3 6.4 6.5 6.9 7.0 6.9 7.1 7.1 7.0 7.2 7.2 7.0 6.9 6.9 6.8 6.8 6.6 6.3 6.1 5.9 6.0 6.1 6.2 6.3 6.2 6.0 5.8 5.6 5.9 5.9 5.8 5.6 5.5 5.5 5.5 5.5 5.4 5.3 5.3 5.1 5.0
5.9 6.3 6.6 6.6 6.8 7.1 7.2 7.3 7.3 7.2 7.1 7.1 7.1 7.0 7.0 7.0 6.9 6.8 6.6 6.4 6.2 6.0 6.0 6.2 6.4 6.4 6.4 6.1 6.1 5.9 5.7 5.9 5.9 5.8 5.6 5.5 5.6 5.5 5.5 5.3 5.2 5.1 5.0
6.3 6.6 6.9 6.9 7.1 7.3 7.3 7.4 7.5 7.4 7.4 7.2 7.2 7.1 7.1 7.1 7.0 6.9 6.7 6.5 6.3 6.3 6.3 6.4 6.6 6.5 6.4 6.4 6.2 6.0 5.9 5.7 5.9 5.9 5.8 5.7 5.5 5.5 5.5 5.4 5.2 5.1 5.0
6.5 6.8 7.0 7.2 7.4 7.5 7.5 7.5 7.6 7.6 7.6 7.4 7.3 7.2 7.1 7.1 7.1 7.1 6.9 6.8 6.6 6.5 6.6 6.6 6.7 6.7 6.5 6.4 6.4 6.2 6.1 6.0 5.8 5.8 5.9 5.9 5.7 5.7 5.7 5.7 5.6 5.5 5.6
6.8 7.0 7.1 7.4 7.5 7.5 7.6 7.6 7.7 7.8 7.7 7.5 7.4 7.2 7.2 7.2 7.2 7.2 7.2 7.1 6.9 6.9 6.8 6.9 6.8 6.8 6.7 6.6 6.4 6.3 6.2 6.0 6.1 6.0 5.8 5.8 5.9 5.8 5.8 5.8 5.8 5.9 5.9
7.0 7.2 7.3 7.5 7.6 7.5 7.6 7.6 7.8 7.8 7.7 7.6 7.4 7.3 7.2 7.3 7.3 7.4 7.4 7.4 7.3 7.2 7.1 7.1 7.1 7.0 6.9 6.7 6.6 6.4 6.4 6.3 6.1 6.1 6.0 5.9 5.8 5.9 5.9 5.9 6.0 6.1 6.1
7.4 7.5 7.5 7.6 7.7 7.6 7.6 7.7 7.8 7.8 7.8 7.6 7.5 7.3 7.4 7.4 7.5 7.5 7.5 7.6 7.6 7.4 7.4 7.4 7.3 7.4 7.2 7.1 6.8 6.6 6.4 6.4 6.3 6.2 6.1 6.1 6.0 5.9 5.9 6.0 6.1 6.1 6.2
7.6 7.8 7.8 7.9 7.9 7.8 7.7 7.7 7.8 7.8 7.8 7.7 7.6 7.5 7.5 7.5 7.6 7.6 7.6 7.7 7.7 7.6 7.5 7.6 7.5 7.6 7.6 7.5 7.3 7.0 6.8 6.6 6.4 6.3 6.2 6.1 6.0 6.0 6.0 5.9 6.0 6.1 6.2
7.8 8.1 8.1 8.1 8.1 8.0 7.9 7.8 7.7 7.7 7.7 7.7 7.6 7.6 7.7 7.6 7.7 7.7 7.7 7.7 7.7 7.7 7.6 7.6 7.6 7.7 7.8 7.8 7.6 7.4 7.0 6.8 6.7 6.6 6.5 6.4 6.3 6.1 6.0 6.0 5.9 5.9 6.0
7.8 8.1 8.2 8.3 8.2 8.1 8.0 7.9 7.8 7.6 7.6 7.6 7.7 7.7 7.5 7.7 7.9 7.8 7.8 7.7 7.7 7.7 7.7 7.6 7.6 7.6 7.7 7.8 7.8 7.6 7.3 7.0 6.9 6.9 6.8 6.7 6.6 6.5 6.4 6.1 6.0 5.9 6.0
7.7 8.0 8.2 8.3 8.3 8.2 8.1 7.9 7.8 7.7 7.6 7.6 7.6 7.7 7.8 7.8 7.9 7.9 7.9 7.8 7.7 7.7 7.7 7.7 7.6 7.6 7.7 7.8 7.9 7.8 7.6 7.4 7.3 7.2 7.2 7.1 7.1 7.0 6.8 6.7 6.5 6.2 6.1
Wind_Speed
4 4 5 5 5 6 6 6 5 4 5 5 5 5 6 5 6 5 6 5 5 5 2 2 4 3 3 3 4 4 6 6 10 10 9 10 10 10 6 7 12 12 13
2 2 2 4 5 5 6 6 7 6 7 6 3 3 5 6 4 5 6 5 4 3 3 4 5 5 4 4 4 7 7 8 8 13 11 10 10 8 4 3 5 7 9
1 2 3 4 5 6 7 7 6 6 4 4 4 5 5 5 4 5 4 3 2 4 5 4 5 5 6 5 6 7 7 8 9 7 9 8 8 4 3 4 3 3 2
2 3 4 5 5 6 6 7 6 5 6 5 5 6 5 3 4 3 2 3 3 4 4 5 5 6 7 8 8 8 8 7 9 8 7 7 7 6 2 3 3 1 2
4 4 5 5 6 6 6 6 6 6 6 4 5 4 3 2 1 1 2 3 4 5 5 6 6 10 19 16 9 9 9 8 7 8 6 7 6 3 2 1 2 2 2
5 6 6 5 6 6 6 6 6 6 6 6 3 4 3 3 3 1 3 4 4 5 8 8 7 13 12 18 20 21 16 11 10 8 7 8 9 6 4 4 2 2 2
5 6 6 6 6 7 6 6 6 6 5 5 4 1 5 4 5 6 7 4 5 6 7 8 9 8 12 10 15 20 18 17 14 8 8 8 9 6 7 7 4 3 3
6 6 6 6 6 6 6 7 6 5 5 3 2 3 4 4 7 6 6 4 4 6 7 8 9 10 10 12 12 9 10 10 9 6 8 8 8 9 9 8 7 5 4
7 6 6 5 6 6 7 7 6 3 1 2 3 4 4 3 5 6 6 3 5 7 8 8 9 9 15 20 11 11 10 10 12 17 16 16 17 19 14 4 6 7 7
7 7 6 5 5 6 6 6 3 2 3 3 4 4 5 3 5 7 6 1 3 5 6 8 12 12 18 17 9 8 9 8 10 9 7 9 12 12 15 9 6 4 4
6 6 6 6 5 5 5 3 4 2 3 2 4 3 3 3 2 6 8 1 3 4 5 6 6 16 18 17 16 7 9 9 9 7 7 5 6 7 6 7 7 6 6
6 6 7 6 3 3 5 4 2 3 4 2 2 0 0 1 3 5 8 9 10 1 5 5 7 16 16 15 12 16 15 9 5 5 5 5 5 5 6 6 10 10 11
6 7 7 6 3 4 4 4 1 2 2 3 2 2 2 2 2 7 8 8 7 3 3 7 13 14 13 9 15 15 10 6 6 5 6 6 6 6 8 5 7 10 10
6 6 6 4 4 3 3 2 3 2 2 3 2 3 2 2 2 3 3 3 4 4 4 4 4 7 6 5 6 8 6 6 6 6 6 7 6 5 5 4 3 4 5
5 4 6 5 4 3 3 3 3 3 4 3 3 3 3 3 3 5 4 2 2 3 3 3 3 3 5 5 5 5 6 7 6 7 7 7 7 7 5 4 2 2 3
5 4 5 5 4 3 3 3 6 9 8 9 10 6 3 7 6 7 7 4 6 5 3 2 3 2 3 5 5 5 3 7 7 7 6 7 6 6 6 6 5 4 3
5 6 5 5 3 2 2 3 3 4 6 6 7 10 11 8 9 8 6 4 2 2 1 2 2 2 3 4 4 5 5 4 5 6 6 6 6 6 6 6 6 5 4
6 7 4 4 3 3 3 3 3 3 3 3 4 4 10 11 11 8 7 2 1 1 1 2 3 3 3 3 3 4 4 5 3 4 5 5 5 5 4 6 6 4 4
6 5 4 3 3 4 3 3 3 3 4 3 2 3 4 8 9 8 4 3 3 3 2 3 3 3 3 3 2 3 3 3 3 3 3 4 5 5 5 5 5 5 4
7 7 6 3 3 3 3 3 3 4 4 4 3 3 1 2 1 3 2 3 3 3 3 3 3 3 3 3 3 2 3 3 3 3 3 3 4 3 4 5 5 3 3
6 6 6 3 5 5 5 4 4 3 4 4 4 4 7 4 5 4 4 3 4 4 4 4 4 3 3 3 3 2 2 3 3 3 3 4 3 3 4 4 3 3 4
6 5 5 6 6 6 6 5 4 4 4 4 5 3 5 3 4 4 4 5 5 5 5 4 4 4 4 3 3 3 3 3 3 3 3 3 4 4 4 3 4 3 4
6 7 7 6 6 6 4 4 4 4 4 5 5 5 3 4 4 5 6 5 4 4 8 8 4 4 10 11 11 7 3 3 3 3 3 3 4 4 4 3 3 3 4
6 8 8 6 5 4 4 5 5 6 5 5 5 5 6 5 5 6 5 4 4 4 10 10 9 7 8 11 11 10 10 9 6 6 4 2 3 4 3 3 3 3 3
7 8 7 6 5 5 6 6 6 7 7 6 6 6 6 6 6 5 5 4 4 4 4 10 12 13 13 12 11 9 8 6 6 6 5 3 3 4 3 2 2 3 2
6 7 7 6 5 6 6 7 8 8 8 8 8 7 7 7 8 6 6 5 4 5 5 9 13 15 13 13 12 10 9 6 5 5 5 3 2 2 2 2 2 1 2
Wind_Direction
53 35 18 349 339 340 335 318 300 261 220 201 208 192 227 271 274 260 262 279 267 264 229 268 285 281 293 292 295 290 282 276 282 289 282 282 282 262 266 274 295 337 344
84 23 334 325 328 323 310 292 266 249 236 223 225 275 285 276 274 261 267 276 254 264 273 272 288 305 291 280 281 283 280 277 277 282 279 278 275 239 219 252 263 255 330
199 266 293 299 305 305 304 309 287 273 304 294 282 274 286 275 267 259 250 251 235 252 273 297 287 294 287 277 280 281 280 282 284 283 291 279 275 266 270 258 226 254 269
239 259 281 296 297 298 310 309 301 288 278 274 282 279 277 298 288 272 167 228 269 298 306 294 289 284 286 282 282 282 284 290 293 286 294 306 283 267 211 241 260 236 291
261 279 282 292 307 311 301 295 292 287 272 276 289 296 298 291 44 181 245 327 329 316 311 310 303 297 302 305 301 299 291 281 283 284 275 289 301 309 300 311 278 301 294
271 285 288 310 309 302 303 310 304 301 299 296 320 324 329 56 26 6 22 330 334 332 326 315 304 307 299 308 308 301 297 292 281 283 285 277 272 271 296 280 264 301 295
279 292 291 299 297 294 302 300 296 290 290 294 329 59 76 50 38 27 34 29 354 324 310 314 312 314 316 300 297 297 297 293 293 287 301 284 276 253 261 267 241 244 245
285 288 293 292 291 299 298 296 291 276 284 301 113 111 98 74 55 37 16 348 333 304 303 303 308 305 303 307 299 303 308 296 277 267 263 269 272 271 256 253 256 255 262
283 290 282 285 300 303 304 303 299 287 311 155 152 131 106 59 52 13 359 326 304 303 309 309 308 315 309 318 323 308 315 303 288 282 284 284 284 284 273 241 230 235 256
286 282 283 291 295 299 297 298 277 282 228 152 115 109 114 92 27 360 353 299 289 304 305 311 316 323 323 332 330 334 311 324 321 313 287 279 278 277 274 263 261 260 246
300 302 297 297 289 288 301 290 281 248 149 122 124 133 114 102 357 342 344 284 284 301 315 315 315 319 335 336 339 323 335 343 326 320 314 300 283 272 265 254 239 226 235
314 304 297 283 274 301 305 305 323 150 142 145 138 74 323 287 291 304 332 336 337 311 312 309 299 331 339 342 342 336 349 336 317 312 310 302 294 280 271 252 236 230 230
311 310 308 291 290 309 296 284 214 148 155 204 211 228 253 240 263 293 313 322 328 314 297 323 343 342 344 345 346 349 343 338 329 328 322 311 300 291 288 258 230 226 229
305 315 319 299 299 302 292 244 191 186 211 236 222 239 242 258 270 274 280 299 310 308 320 328 321 334 326 322 343 347 340 339 336 332 327 317 312 308 296 274 236 217 224
299 308 320 293 268 280 248 221 214 227 205 217 228 211 192 257 246 223 283 257 294 263 335 359 348 337 341 342 349 347 344 345 346 339 337 335 336 339 342 344 338 246 212
281 280 297 297 267 249 240 262 256 244 260 245 238 202 225 222 234 261 289 297 331 359 26 355 317 323 328 334 344 342 341 348 341 335 340 344 342 342 348 355 4 14 44
278 286 290 289 250 225 220 228 254 306 290 274 272 232 216 215 231 248 267 265 297 46 66 293 275 290 300 321 330 338 337 336 328 342 341 344 344 346 355 1 8 12 11
273 262 265 268 245 235 227 231 212 213 244 283 286 267 229 230 237 248 257 143 336 355 208 250 274 277 296 310 318 327 331 338 343 349 348 340 344 349 354 2 2 5 3
278 270 261 252 245 237 216 225 232 242 234 244 297 295 269 246 248 244 277 179 212 243 239 250 248 270 279 291 294 304 305 325 329 336 342 349 345 347 350 352 354 346 357
282 262 259 254 236 213 217 223 245 240 240 238 245 243 225 180 240 235 231 202 211 240 237 243 256 257 265 268 277 279 311 325 333 342 334 333 337 335 342 338 340 346 343
287 266 255 237 231 229 224 223 228 223 236 242 242 234 216 191 224 214 223 217 223 233 233 228 240 242 246 254 270 275 298 306 309 319 331 329 329 342 335 326 329 342 349
283 266 267 261 240 225 236 226 224 224 234 233 248 254 232 202 224 227 225 235 226 222 220 208 225 219 221 226 233 230 261 284 305 311 321 324 330 335 337 339 347 346 352
274 275 271 263 247 228 237 235 228 230 239 238 235 245 220 230 227 225 228 231 225 226 227 211 218 236 241 242 238 231 232 258 267 267 297 316 323 334 340 339 342 345 357
276 279 272 259 246 228 226 242 235 236 240 240 236 234 234 228 228 228 224 225 222 231 225 216 214 219 232 237 236 239 249 257 279 282 270 279 301 320 332 338 348 342 341
279 280 268 258 246 230 234 237 239 241 244 243 248 236 234 229 225 225 228 219 220 215 219 220 221 224 229 231 230 234 234 245 274 295 288 280 279 297 314 315 336 340 358
280 286 279 265 253 246 240 244 244 240 239 241 238 235 235 228 221 214 215 213 222 219 217 220 221 221 223 223 223 223 217 240 262 293 299 295 294 305 318 314 320 332 346